Location: Northcutt
(34.7304°N, 84.4305°W)
Time: 04:45:26
(UTC+00:00)

Vanguard 2 - Pass Details

Date: 06 October 2022
Orbit: 553 x 2933 km, 32.9° (Epoch: 05 December)

Event Time Altitude Azimuth Distance (km) Brightness Sun altitude
Rises 21:56:09 0° 281° (W) 5,561 13.0 15.0°
Reaches altitude 10° 21:59:23 10° 279° (W) 4,818 13.0 14.3°
Maximum altitude 22:14:05 66° 201° (SSW) 3,001 10.9 11.4°
Drops below altitude 10° 22:31:43 10° 124° (SE) 5,651 11.6 7.9°
Sets 22:35:54 0° 122° (ESE) 6,530 11.8 7.1°
